When you browse on this site, cookies collect data to enhance your experience and personalize the content and advertising you see.
Visit our Privacy Policy to learn more. By continuing to use the site, you agree to this use of cookies and data.
  • In Sweden
  • List of Countries
  • For 7 days
  • Water Temperature
  • Weather Map
  • Weather Widgets
  • user-avatar
    Login

    Hourly Weather Puebla

    Today, 23 February, Sunday

    Time Temperature Precipitation Wind Pressure Humidity
    00:00 +15°C° 0 mm 1 mps 591 mmHg 63%
    01:00 +15°C° 0 mm 1 mps 590 mmHg 64%
    02:00 +14°C° 0 mm 1 mps 590 mmHg 65%
    03:00 +14°C° 0 mm 1 mps 590 mmHg 66%
    04:00 +14°C° 0 mm 1 mps 589 mmHg 67%
    05:00 +13°C° 0 mm 1 mps 589 mmHg 65%
    06:00 +14°C° 0 mm 0 mps 590 mmHg 58%
    07:00 +16°C° 0 mm 0 mps 591 mmHg 52%
    08:00 +18°C° 0 mm 0 mps 592 mmHg 46%
    09:00 +22°C° 0 mm 1 mps 593 mmHg 40%
    10:00 +24°C° 0 mm 2 mps 593 mmHg 35%
    11:00 +25°C° 0 mm 2 mps 593 mmHg 29%
    12:00 +26°C° 0 mm 3 mps 593 mmHg 27%
    13:00 +27°C° 0 mm 4 mps 592 mmHg 25%
    14:00 +27°C° 0 mm 4 mps 592 mmHg 23%
    15:00 +26°C° 0 mm 4 mps 591 mmHg 25%
    16:00 +25°C° 0 mm 4 mps 591 mmHg 26%
    17:00 +23°C° 0 mm 4 mps 590 mmHg 28%
    18:00 +22°C° 0 mm 3 mps 590 mmHg 32%
    19:00 +20°C° 0 mm 2 mps 590 mmHg 36%
    20:00 +19°C° 0 mm 1 mps 590 mmHg 40%
    21:00 +19°C° 0 mm 1 mps 589 mmHg 41%
    22:00 +18°C° 0 mm 1 mps 589 mmHg 42%
    23:00 +16°C° 0 mm 0 mps 589 mmHg 43%

    Tomorrow, 24 February, Monday

    Time Temperature Precipitation Wind Pressure Humidity
    00:00 +15°C° 0 mm 0 mps 588 mmHg 44%
    01:00 +15°C° 0 mm 0 mps 588 mmHg 46%
    02:00 +14°C° 0 mm 0 mps 587 mmHg 48%
    03:00 +14°C° 0 mm 0 mps 587 mmHg 49%
    04:00 +13°C° 0 mm 0 mps 587 mmHg 51%
    05:00 +13°C° 0 mm 0 mps 586 mmHg 52%
    06:00 +15°C° 0 mm 0 mps 588 mmHg 48%
    07:00 +17°C° 0 mm 0 mps 589 mmHg 43%
    08:00 +19°C° 0 mm 0 mps 590 mmHg 39%
    09:00 +23°C° 0 mm 1 mps 590 mmHg 35%
    10:00 +24°C° 0 mm 2 mps 590 mmHg 32%
    11:00 +26°C° 0 mm 3 mps 591 mmHg 28%
    12:00 +27°C° 0 mm 4 mps 590 mmHg 26%
    13:00 +27°C° 0 mm 5 mps 590 mmHg 25%
    14:00 +28°C° 0 mm 6 mps 589 mmHg 23%
    15:00 +27°C° 0 mm 5 mps 589 mmHg 25%
    16:00 +26°C° 0 mm 5 mps 588 mmHg 27%
    17:00 +25°C° 0 mm 5 mps 588 mmHg 29%
    18:00 +22°C° 0 mm 4 mps 588 mmHg 32%
    19:00 +21°C° 0 mm 3 mps 588 mmHg 36%
    20:00 +19°C° 0 mm 2 mps 588 mmHg 39%
    21:00 +18°C° 0 mm 2 mps 588 mmHg 42%
    22:00 +18°C° 0 mm 1 mps 587 mmHg 45%
    23:00 +16°C° 0 mm 1 mps 587 mmHg 49%

    Day after tomorrow, 25 February, Tuesday

    Time Temperature Precipitation Wind Pressure Humidity
    00:00 +16°C° 0 mm 1 mps 587 mmHg 54%
    01:00 +15°C° 0 mm 1 mps 586 mmHg 59%
    02:00 +15°C° 0 mm 1 mps 586 mmHg 64%
    03:00 +14°C° 0 mm 1 mps 586 mmHg 68%
    04:00 +14°C° 0 mm 1 mps 585 mmHg 72%
    05:00 +13°C° 0 mm 1 mps 585 mmHg 76%
    06:00 +15°C° 0 mm 1 mps 586 mmHg 72%
    07:00 +16°C° 0 mm 2 mps 587 mmHg 68%
    08:00 +18°C° 0 mm 2 mps 588 mmHg 64%
    09:00 +20°C° 0 mm 3 mps 589 mmHg 56%
    10:00 +21°C° 0 mm 4 mps 589 mmHg 48%
    11:00 +23°C° 0 mm 5 mps 590 mmHg 40%
    12:00 +24°C° 0 mm 6 mps 589 mmHg 37%
    13:00 +24°C° 0 mm 6 mps 589 mmHg 35%
    14:00 +26°C° 0 mm 7 mps 589 mmHg 32%
    15:00 +24°C° 0 mm 7 mps 588 mmHg 34%
    16:00 +23°C° 0 mm 6 mps 588 mmHg 35%
    17:00 +22°C° 0 mm 6 mps 588 mmHg 37%
    18:00 +20°C° 0 mm 5 mps 588 mmHg 40%
    19:00 +19°C° 0 mm 4 mps 588 mmHg 43%
    20:00 +17°C° 0 mm 2 mps 588 mmHg 46%
    21:00 +17°C° 0 mm 2 mps 588 mmHg 48%
    22:00 +16°C° 0 mm 2 mps 588 mmHg 50%
    23:00 +15°C° 0 mm 1 mps 588 mmHg 52%

    26 February, Wednesday

    Time Temperature Precipitation Wind Pressure Humidity
    00:00 +14°C° 0 mm 1 mps 587 mmHg 59%
    01:00 +14°C° 0 mm 1 mps 587 mmHg 66%
    02:00 +13°C° 0 mm 1 mps 587 mmHg 73%
    03:00 +13°C° 0 mm 2 mps 587 mmHg 76%
    04:00 +13°C° 0 mm 2 mps 587 mmHg 78%
    05:00 +11°C° 0 mm 3 mps 588 mmHg 81%
    06:00 +12°C° 0 mm 4 mps 589 mmHg 72%
    07:00 +14°C° 0 mm 5 mps 590 mmHg 62%
    08:00 +15°C° 0 mm 6 mps 591 mmHg 53%
    09:00 +16°C° 0 mm 5 mps 592 mmHg 50%
    10:00 +17°C° 0 mm 5 mps 592 mmHg 46%
    11:00 +20°C° 0 mm 5 mps 593 mmHg 43%
    12:00 +19°C° 0 mm 5 mps 592 mmHg 44%
    13:00 +19°C° 0 mm 5 mps 591 mmHg 45%
    14:00 +17°C° 0 mm 5 mps 591 mmHg 46%
    15:00 +16°C° 0 mm 5 mps 590 mmHg 49%
    16:00 +15°C° 0 mm 4 mps 590 mmHg 52%
    17:00 +14°C° 0 mm 4 mps 590 mmHg 55%
    18:00 +13°C° 0 mm 4 mps 590 mmHg 59%
    19:00 +12°C° 0 mm 4 mps 590 mmHg 63%
    20:00 +10°C° 0 mm 3 mps 590 mmHg 66%
    21:00 +10°C° 0 mm 3 mps 590 mmHg 68%
    22:00 +10°C° 0 mm 3 mps 590 mmHg 70%
    23:00 +9°C° 0 mm 3 mps 590 mmHg 72%

    27 February, Thursday

    Time Temperature Precipitation Wind Pressure Humidity
    00:00 +9°C° 0 mm 2 mps 589 mmHg 73%
    01:00 +9°C° 0 mm 2 mps 589 mmHg 75%
    02:00 +9°C° 0 mm 2 mps 589 mmHg 76%
    03:00 +8°C° 0 mm 2 mps 589 mmHg 78%
    04:00 +8°C° 0 mm 2 mps 588 mmHg 80%
    05:00 +9°C° 0 mm 1 mps 588 mmHg 82%
    06:00 +10°C° 0 mm 1 mps 589 mmHg 75%
    07:00 +12°C° 0 mm 1 mps 590 mmHg 68%
    08:00 +14°C° 0 mm 1 mps 591 mmHg 61%
    09:00 +16°C° 0 mm 2 mps 592 mmHg 54%
    10:00 +18°C° 0 mm 2 mps 592 mmHg 47%
    11:00 +20°C° 0 mm 3 mps 593 mmHg 41%
    12:00 +21°C° 0 mm 3 mps 593 mmHg 39%
    13:00 +21°C° 0 mm 4 mps 592 mmHg 37%
    14:00 +22°C° 0 mm 4 mps 592 mmHg 35%
    15:00 +21°C° 0 mm 4 mps 592 mmHg 36%
    16:00 +20°C° 0 mm 4 mps 591 mmHg 37%
    17:00 +20°C° 0 mm 4 mps 591 mmHg 39%
    18:00 +18°C° 0 mm 3 mps 591 mmHg 43%
    19:00 +17°C° 0 mm 2 mps 591 mmHg 48%
    20:00 +15°C° 0 mm 1 mps 591 mmHg 53%
    21:00 +15°C° 0 mm 1 mps 591 mmHg 52%
    22:00 +15°C° 0 mm 1 mps 592 mmHg 52%
    23:00 +15°C° 0 mm 1 mps 592 mmHg 52%

    28 February, Friday

    Time Temperature Precipitation Wind Pressure Humidity
    00:00 +15°C° 0 mm 1 mps 592 mmHg 53%
    01:00 +15°C° 0 mm 1 mps 591 mmHg 54%
    02:00 +14°C° 0 mm 1 mps 591 mmHg 55%
    03:00 +14°C° 0 mm 1 mps 591 mmHg 58%
    04:00 +13°C° 0 mm 1 mps 590 mmHg 60%
    05:00 +12°C° 0 mm 1 mps 590 mmHg 62%
    06:00 +14°C° 0 mm 1 mps 591 mmHg 58%
    07:00 +15°C° 0 mm 1 mps 593 mmHg 53%
    08:00 +17°C° 0 mm 2 mps 594 mmHg 48%
    09:00 +18°C° 0 mm 2 mps 594 mmHg 44%
    10:00 +20°C° 0 mm 2 mps 595 mmHg 40%
    11:00 +22°C° 0 mm 3 mps 595 mmHg 35%
    12:00 +22°C° 0 mm 3 mps 594 mmHg 35%
    13:00 +22°C° 0 mm 4 mps 594 mmHg 35%
    14:00 +23°C° 0 mm 4 mps 593 mmHg 35%
    15:00 +22°C° 0 mm 4 mps 593 mmHg 38%
    16:00 +21°C° 0 mm 5 mps 592 mmHg 41%
    17:00 +20°C° 0 mm 5 mps 592 mmHg 44%
    18:00 +18°C° 0 mm 4 mps 592 mmHg 50%
    19:00 +16°C° 0 mm 3 mps 592 mmHg 57%
    20:00 +13°C° 0 mm 3 mps 592 mmHg 63%
    21:00 +14°C° 0 mm 2 mps 592 mmHg 65%
    22:00 +13°C° 0 mm 2 mps 592 mmHg 67%
    23:00 +13°C° 0 mm 2 mps 591 mmHg 69%
    Show more